Fergus Falls, MN

7:28 PM CDT on October 17, 2017 (GMT -0500)
Fergus Falls Municipal-Mickelson

Weather History for KFFM - June, 2014

Change the Weather History Date:

Monday, June 30, 2014

  Actual Average Record
Temperature  
Mean Temperature 68 °F -  
Max Temperature 75 °F 77 °F 96 °F (1966)
Min Temperature 60 °F 56 °F 44 °F (1950)
Cooling Degree Days 2    
Growing Degree Days 18 (Base 50)    
Moisture  
Dew Point 51 °F    
Average Humidity 57    
Maximum Humidity 94    
Minimum Humidity 38    
Precipitation  
Precipitation 0.04 in - - ()
Sea Level Pressure  
Sea Level Pressure 29.50 in    
Wind  
Wind Speed 15 mph (WSW)    
Max Wind Speed 32 mph    
Max Gust Speed 41 mph    
Visibility 10 miles    
Events Rain    
Averages and records for this station are not official NWS values.
T = Trace of Precipitation, MM = Missing Value Source: NWS Daily Summary

Daily Weather History Graph

Daily Weather History Graph

Search for Another Location

Airport or City:

Trip Planner

Search our weather history database for the weather conditions in past years. The results will help you decide how hot, cold, wet, or windy it might be!

Date:

Astronomy

Jun. 30, 2014 Rise Set
Actual Time 5:36 AM CDT 9:20 PM CDT
Civil Twilight 4:57 AM CDT 9:59 PM CDT
Nautical Twilight 4:05 AM CDT 10:51 PM CDT
Astronomical Twilight 2:52 AM CDT 12:03 AM CDT
Moon 9:02 AM CDT (6/30) 10:59 PM CDT (6/30)
Length of Visible Light 17h 01m
Length of Day
15h 44m
Waxing Crescent, 10% of the Moon is Illuminated
Jun 30
Waxing Crescent
Jul 5
First Quarter
Jul 12
Full
Jul 18
Last Quarter
Jul 26
New

Hourly Weather History & Observations

Time (CDT) Temp. Dew Point Humidity Pressure Visibility Wind Dir Wind Speed Gust Speed Precip Events Conditions
12:14 AM 66.2 °F 48.2 °F 52% 29.55 in 10.0 mi SW 11.5 mph - N/A   Clear
12:34 AM 64.4 °F 50.0 °F 59% 29.55 in 10.0 mi SW 9.2 mph - N/A   Clear
12:54 AM 64.4 °F 50.0 °F 59% 29.55 in 10.0 mi SW 9.2 mph - N/A   Clear
1:14 AM 64.4 °F 51.8 °F 64% 29.54 in 10.0 mi SW 10.4 mph - N/A   Clear
1:34 AM 64.4 °F 51.8 °F 64% 29.54 in 10.0 mi SW 10.4 mph - N/A   Clear
1:54 AM 64.4 °F 50.0 °F 59% 29.54 in 10.0 mi SW 10.4 mph - N/A   Clear
2:14 AM 64.4 °F 50.0 °F 59% 29.54 in 10.0 mi SW 11.5 mph - N/A   Clear
2:33 AM 64.4 °F 50.0 °F 59% 29.54 in 10.0 mi SW 12.7 mph - N/A   Clear
2:54 AM 62.6 °F 50.0 °F 63% 29.54 in 10.0 mi SW 10.4 mph - N/A   Clear
3:14 AM 62.6 °F 50.0 °F 63% 29.53 in 10.0 mi SW 10.4 mph - N/A   Clear
3:34 AM 62.6 °F 50.0 °F 63% 29.53 in 10.0 mi SW 10.4 mph - N/A   Clear
3:54 AM 60.8 °F 50.0 °F 68% 29.53 in 10.0 mi SW 9.2 mph - N/A   Clear
4:14 AM 60.8 °F 50.0 °F 68% 29.52 in 10.0 mi WSW 9.2 mph - N/A   Clear
4:34 AM 60.8 °F 50.0 °F 68% 29.53 in 10.0 mi SW 9.2 mph - N/A   Clear
4:54 AM 60.8 °F 50.0 °F 68% 29.53 in 10.0 mi SW 9.2 mph - N/A   Clear
5:14 AM 62.6 °F 48.2 °F 59% 29.53 in 10.0 mi WSW 13.8 mph 18.4 mph N/A   Clear
5:34 AM 62.6 °F 48.2 °F 59% 29.53 in 10.0 mi WSW 11.5 mph - N/A   Clear
5:54 AM 62.6 °F 48.2 °F 59% 29.53 in 10.0 mi WSW 10.4 mph - N/A   Clear
6:14 AM 64.4 °F 46.4 °F 52% 29.54 in 10.0 mi WSW 13.8 mph 19.6 mph N/A   Clear
6:34 AM 64.4 °F 46.4 °F 52% 29.55 in 10.0 mi WSW 11.5 mph - N/A   Clear
6:54 AM 64.4 °F 46.4 °F 52% 29.55 in 10.0 mi WSW 10.4 mph - N/A   Clear
7:14 AM 64.4 °F 48.2 °F 56% 29.56 in 10.0 mi SW 10.4 mph - N/A   Clear
7:34 AM 64.4 °F 48.2 °F 56% 29.55 in 10.0 mi SW 11.5 mph - N/A   Clear
7:54 AM 66.2 °F 48.2 °F 52% 29.56 in 10.0 mi SW 15.0 mph - N/A   Clear
8:14 AM 66.2 °F 50.0 °F 56% 29.56 in 10.0 mi SW 11.5 mph 17.3 mph N/A   Clear
8:34 AM 69.8 °F 48.2 °F 46% 29.55 in 10.0 mi WSW 15.0 mph 20.7 mph N/A   Clear
8:54 AM 69.8 °F 48.2 °F 46% 29.54 in 10.0 mi West 18.4 mph 25.3 mph N/A   Clear
9:15 AM 71.6 °F 46.4 °F 41% 29.54 in 10.0 mi West 20.7 mph 26.5 mph N/A   Clear
9:34 AM 71.6 °F 46.4 °F 41% 29.53 in 10.0 mi West 21.9 mph 28.8 mph N/A   Clear
9:54 AM 71.6 °F 46.4 °F 41% 29.53 in 10.0 mi West 18.4 mph 25.3 mph N/A   Clear
10:15 AM 69.8 °F 48.2 °F 46% 29.51 in 10.0 mi West 16.1 mph 24.2 mph N/A   Clear
10:34 AM 71.6 °F 48.2 °F 43% 29.51 in 10.0 mi WSW 20.7 mph 26.5 mph N/A   Clear
10:54 AM 71.6 °F 46.4 °F 41% 29.51 in 10.0 mi West 24.2 mph 29.9 mph N/A   Clear
11:15 AM 73.4 °F 48.2 °F 41% 29.52 in 10.0 mi WSW 23.0 mph 29.9 mph N/A   Clear
11:34 AM 71.6 °F 46.4 °F 41% 29.51 in 10.0 mi WSW 21.9 mph 28.8 mph N/A   Clear
11:54 AM 73.4 °F 48.2 °F 41% 29.51 in 10.0 mi WSW 19.6 mph 25.3 mph N/A   Clear
12:14 PM 71.6 °F 46.4 °F 41% 29.51 in 10.0 mi WSW 19.6 mph 31.1 mph N/A   Clear
12:34 PM 71.6 °F 46.4 °F 41% 29.52 in 10.0 mi WSW 23.0 mph 28.8 mph N/A   Clear
12:54 PM 71.6 °F 48.2 °F 43% 29.50 in 10.0 mi WSW 19.6 mph 27.6 mph N/A   Clear
1:14 PM 71.6 °F 48.2 °F 43% 29.50 in 10.0 mi WSW 19.6 mph 27.6 mph N/A   Clear
1:34 PM 71.6 °F 46.4 °F 41% 29.50 in 10.0 mi WSW 25.3 mph 33.4 mph N/A   Clear
1:54 PM 73.4 °F 48.2 °F 41% 29.49 in 10.0 mi WSW 20.7 mph 31.1 mph N/A   Clear
2:14 PM 73.4 °F 48.2 °F 41% 29.48 in 10.0 mi WSW 31.1 mph 34.5 mph N/A   Scattered Clouds
2:34 PM 75.2 °F 48.2 °F 38% 29.48 in 10.0 mi WSW 23.0 mph 35.7 mph N/A   Scattered Clouds
2:54 PM 75.2 °F 50.0 °F 41% 29.45 in 10.0 mi West 24.2 mph 34.5 mph N/A   Scattered Clouds
3:14 PM 75.2 °F 48.2 °F 38% 29.44 in 10.0 mi West 29.9 mph 40.3 mph N/A   Scattered Clouds
3:34 PM 75.2 °F 48.2 °F 38% 29.44 in 10.0 mi West 25.3 mph 38.0 mph N/A   Scattered Clouds
3:54 PM 73.4 °F 48.2 °F 41% 29.43 in 10.0 mi West 27.6 mph 39.1 mph N/A   Scattered Clouds
4:14 PM 73.4 °F 48.2 °F 41% 29.43 in 10.0 mi West 25.3 mph 32.2 mph N/A   Scattered Clouds
4:34 PM 73.4 °F 50.0 °F 44% 29.43 in 10.0 mi West 24.2 mph 33.4 mph N/A   Mostly Cloudy
4:54 PM 73.4 °F 48.2 °F 41% 29.43 in 10.0 mi West 32.2 mph 41.4 mph N/A   Scattered Clouds
5:14 PM 73.4 °F 48.2 °F 41% 29.43 in 10.0 mi West 31.1 mph 41.4 mph N/A   Scattered Clouds
5:34 PM 71.6 °F 50.0 °F 46% 29.44 in 10.0 mi West 25.3 mph 40.3 mph N/A   Mostly Cloudy
5:54 PM 69.8 °F 51.8 °F 53% 29.45 in 10.0 mi West 29.9 mph 36.8 mph N/A   Mostly Cloudy
6:14 PM 68.0 °F 51.8 °F 56% 29.46 in 10.0 mi West 29.9 mph 35.7 mph N/A   Overcast
6:34 PM 66.2 °F 51.8 °F 60% 29.47 in 10.0 mi West 18.4 mph 32.2 mph N/A   Overcast
6:54 PM 66.2 °F 51.8 °F 60% 29.46 in 10.0 mi West 19.6 mph 29.9 mph N/A   Overcast
7:14 PM 66.2 °F 53.6 °F 64% 29.46 in 7.0 mi West 21.9 mph 28.8 mph N/A   Overcast
7:34 PM 62.6 °F 60.8 °F 94% 29.46 in 5.0 mi West 18.4 mph - 0.01 in   Light Drizzle
7:54 PM 62.6 °F 60.8 °F 94% 29.45 in 10.0 mi West 16.1 mph - 0.01 in   Overcast
8:14 PM 64.4 °F 57.2 °F 77% 29.45 in 10.0 mi West 20.7 mph 24.2 mph N/A   Overcast
8:34 PM 62.6 °F 59.0 °F 88% 29.45 in 4.0 mi West 19.6 mph 33.4 mph 0.01 in   Light Drizzle
8:54 PM 62.6 °F 60.8 °F 94% 29.45 in 7.0 mi West 16.1 mph - 0.03 in Rain Rain
9:14 PM 62.6 °F 60.8 °F 94% 29.44 in 10.0 mi West 15.0 mph 20.7 mph N/A   Overcast
9:34 PM 64.4 °F 60.8 °F 88% 29.44 in 10.0 mi West 15.0 mph 18.4 mph N/A   Overcast
9:54 PM 64.4 °F 60.8 °F 88% 29.45 in 10.0 mi West 16.1 mph - N/A   Overcast
10:14 PM 64.4 °F 60.8 °F 88% 29.45 in 10.0 mi West 15.0 mph - N/A   Overcast
10:34 PM 64.4 °F 60.8 °F 88% 29.45 in 10.0 mi West 17.3 mph 23.0 mph N/A   Overcast
10:54 PM 64.4 °F 59.0 °F 83% 29.46 in 10.0 mi West 16.1 mph 23.0 mph N/A   Overcast
11:14 PM 64.4 °F 57.2 °F 77% 29.46 in 10.0 mi West 12.7 mph 23.0 mph N/A   Mostly Cloudy
11:34 PM 64.4 °F 57.2 °F 77% 29.46 in 10.0 mi West 13.8 mph 18.4 mph N/A   Mostly Cloudy